Regional Weather Roundup
Issued by NWS

Home | Current Version | Previous Version | Graphics & Text | Print | Product List | Glossary On
Versions: 1 2 3 4 5 6 7 8 9 10 11 12 13 14 15 16 17 18 19 20 21 22 23 24 25 26 27
000
ASUS45 KBOU 270907
RWRCO

WEATHER ROUNDUP FOR COLORADO
NATIONAL WEATHER SERVICE DENVER/BOULDER CO
300 AM MDT SAT AUG 27 2016

NOTE: "FAIR" INDICATES FEW OR NO CLOUDS BELOW 12000 FEET WITH NO
SIGNIFICANT WEATHER AND/OR OBSTRUCTIONS TO VISIBILITY.

COZ001>005-013-030-031-271000-
...NORTHWEST COLORADO...

CITY           SKY/WX    TMP DP  RH WIND       PRES   REMARKS
CRAIG          FAIR      51  42  71 NE5       30.18F
HAYDEN         FAIR      48  36  61 SE10      30.20F
MEEKER         FAIR      47  43  86 CALM      30.22F
MOUNT WERNER   NOT AVBL
STEAMBOAT SPGS FAIR      45  40  82 E6        30.23F
WALDEN         FAIR      41  32  70 SE8       30.28S
$$

COZ006>008-011-271000-
...WEST CENTRAL VALLEYS...

CITY           SKY/WX    TMP DP  RH WIND       PRES   REMARKS
GRAND JUNCTION FAIR      58  47  66 E12       30.15S
MONTROSE       FAIR      55  45  68 SE7       30.22F
EAGLE          FAIR      48  48 100 SW5       30.28S
RIFLE          FAIR      52  51  97 SW3       30.21F
DELTA          FAIR      58  46  63 E5        30.19S
NUCLA          MOCLDY   N/A N/A N/A CALM      30.25R
$$

COZ017>023-064>068-271000-
...SOUTHWEST COLORADO...

CITY           SKY/WX    TMP DP  RH WIND       PRES   REMARKS
DURANGO        FAIR      48  43  82 CALM      30.23S
CORTEZ         MOCLDY    58  49  72 CALM      30.19F
PAGOSA SPRINGS FAIR      44  43  94 CALM      30.31R
TELLURIDE      DRIZZLE   46  43  91 E3        30.39S
WOLF CREEK PAS FAIR      37  34  87 MISG      30.55S
$$

COZ009-010-012-014-032>034-037-058>063-271000-
...CENTRAL COLORADO...

CITY           SKY/WX    TMP DP  RH WIND       PRES   REMARKS
ASPEN          MOCLDY    49  43  80 SE9       30.31F
BUENA VISTA    FAIR      48  35  60 CALM      30.31R
COPPER MTN     FAIR      37  32  81 SW7       30.50F
BERTHOUD PASS  HAZE      30  18  59 NW13G20   30.50R VSB 1/4 WCI  20
COTTONWOOD PAS FAIR      48  30  49 SW9       30.40S
GUNNISON       FAIR      43  37  81 SW5       30.34S
KREMMLING      FAIR      43  36  75 E6        30.30R
LEADVILLE      MOCLDY    40  33  76 N7        30.40F
MONARCH PASS   MOCLDY    36  32  87 W22       30.61S
SALIDA         MOCLDY    54  36  50 NW8       30.36R
SUNLIGHT       FAIR      41  37  87 NE8       30.46F
WILKERSON PASS FAIR      37  34  87 SW7       30.48F
$$

COZ069>075-271000-
...SAN LUIS VALLEY/SANGRE DE CRISTO MOUNTAINS...

CITY           SKY/WX    TMP DP  RH WIND       PRES   REMARKS
ALAMOSA        FAIR      40  38  93 E5        30.29R
LA VETA PASS   FAIR      45  37  76 SW8       30.40S
SAGUACHE       CLOUDY    54  41  62 NW14      30.31R
$$

COZ035-036-038>040-271000-
...NORTHERN COLORADO FRONT RANGE...

CITY           SKY/WX    TMP DP  RH WIND       PRES   REMARKS
DENVER INTL AP FAIR      54  49  83 SW8       30.11S
DMNS CITY PARK   N/A     53  51  92 S2G8      30.12S
AURORA         PTCLDY    55  46  73 W3        30.12F
FRONT RANGE AP NOT AVBL
ERIE MUNI ARPT FAIR      51  47  87 CALM      30.10F
BOULDER MUN AP FAIR      55  45  67 SW3       30.11S
CENTENNIAL     FAIR      54  43  66 SE3       30.13F
BROOMFIELD     FAIR      54  46  76 CALM      30.13F
FORT COLLINS   FAIR      52  48  87 CALM      30.11S
LONGMONT       FAIR      51  47  85 CALM      30.12R
$$

COZ041-046-047-076>085-087-088-271000-
...PIKES PEAK/PALMER DIVIDE AND SOUTHERN FOOTHILLS...

CITY           SKY/WX    TMP DP  RH WIND       PRES   REMARKS
COLO. SPRINGS  FAIR      55  44  66 NE5       30.18F
A. F. ACADEMY  FAIR      47  44  89 N7        30.19F
SCHRIEVER AFB  NOT AVBL
ELLICOTT       NOT AVBL
FALCON         FAIR      51  43  75 W6        30.22S
FORT CARSON    FAIR      52  45  77 NW8       30.15S
LIMON          MOCLDY    42  42 100 N6        30.13S
MONUMENT HILL  FAIR      50  43  76 S10       30.22S
TRINIDAD       FAIR      55  47  74 SW10      30.14S
$$

COZ042>045-048>051-090-091-271000-
...NORTHEAST COLORADO...

CITY           SKY/WX    TMP DP  RH WIND       PRES   REMARKS
GREELEY ARPT   FAIR      48  46  93 NW5       30.10S
AKRON          FAIR      53  51  93 W6        30.08S
BURLINGTON     FOG       52  50  93 SE7       30.08S VSB 3/4
WRAY           FAIR     N/A N/A N/A CALM      30.09R
STERLING       FAIR      46  46 100 CALM      30.06S
HOLYOKE        FOG       54  52  94 SE3       30.08S VSB<1/4
FORT MORGAN    FAIR      49  47  93 NE8       30.08F
$$

COZ086-089-092>099-271000-
...SOUTHEAST COLORADO...

CITY           SKY/WX    TMP DP  RH WIND       PRES   REMARKS
PUEBLO         FAIR      58  47  66 CALM      30.09S
LA JUNTA       FAIR      59  53  80 E3        30.05S
LAMAR          FAIR      53  51  93 CALM      30.02F
SPRINGFIELD      N/A     57  54  89 SW7       30.07F
$$




USA.gov is the U.S. government's official web portal to all federal, state and local government web resources and services.